Weather History for KBCB - June, 2013

Change the Weather History Date:

Wednesday, June 26, 2013

  Actual Average Record
Temperature  
Mean Temperature 73 °F 70 °F  
Max Temperature 83 °F 81 °F 92 °F (1988)
Min Temperature 62 °F 59 °F 42 °F (1979)
Degree Days  
Heating Degree Days 0 0  
Month to date heating degree days 7 37  
Since 1 June heating degree days 7 37  
Since 1 July heating degree days 5352 5445  
Cooling Degree Days 8 5  
Month to date cooling degree days 89 94  
Year to date cooling degree days 120 123  
Since 1 June cooling degree days 89 94  
Growing Degree Days 26 (Base 50)    
Moisture  
Dew Point 70 °F    
Average Humidity 82    
Maximum Humidity 100    
Minimum Humidity 63    
Precipitation  
Precipitation 0.51 in 0.11 in 3.85 in (2006)
Month to date precipitation 7.02 3.51  
Year to date precipitation 28.89 20.85  
Snow  
Snow 0.00 in - - ()
Month to date snowfall T  
Since 1 June snowfall T  
Since 1 July snowfall 27.9  
Snow Depth 0.00 in    
Sea Level Pressure  
Sea Level Pressure 30.06 in    
Wind  
Wind Speed 2 mph (West)    
Max Wind Speed 8 mph    
Max Gust Speed 37 mph    
Visibility 7 miles    
Events Rain , Thunderstorm    
T = Trace of Precipitation, MM = Missing Value Source: NWS Daily Summary

Daily Weather History Graph

Daily Weather History Graph

Search for Another Location

Airport or City:

Trip Planner

Search our weather history database for the weather conditions in past years. The results will help you decide how hot, cold, wet, or windy it might be!

Date:

Astronomy

Jun. 26, 2013 Rise Set
Actual Time 6:03 AM EDT 8:45 PM EDT
Civil Twilight 5:32 AM EDT 9:16 PM EDT
Nautical Twilight 4:53 AM EDT 9:55 PM EDT
Astronomical Twilight 4:10 AM EDT 10:38 PM EDT
Moon 11:14 PM EDT (6/26) 9:47 AM EDT (6/26)
Length of Visible Light 15h 44m
Length of Day
14h 42m
Waning Gibbous, 85% of the Moon is Illuminated
Jun 26
Waning Gibbous
Jun 30
Last Quarter
Jul 8
New
Jul 15
First Quarter
Jul 22
Full

Hourly Weather History & Observations

Time (EDT) Temp. Heat Index Dew Point Humidity Pressure Visibility Wind Dir Wind Speed Gust Speed Precip Events Conditions
12:15 AM 68.0 °F - 68.0 °F 100% 30.12 in 10.0 mi WNW 3.5 mph - N/A   Clear
12:35 AM 69.8 °F - 69.8 °F 100% 30.11 in 10.0 mi Calm Calm - N/A   Clear
12:55 AM 68.0 °F - 68.0 °F 100% 30.10 in 10.0 mi Calm Calm - N/A   Clear
1:15 AM 69.8 °F - 69.8 °F 100% 30.10 in 10.0 mi Calm Calm - N/A   Clear
1:35 AM 68.0 °F - 68.0 °F 100% 30.09 in 7.0 mi Calm Calm - N/A   Clear
1:55 AM 68.0 °F - 68.0 °F 100% 30.10 in 7.0 mi SW 3.5 mph - N/A   Clear
2:15 AM 68.0 °F - 68.0 °F 100% 30.09 in 10.0 mi South 3.5 mph - N/A   Clear
2:35 AM 68.0 °F - 68.0 °F 100% 30.08 in 7.0 mi South 4.6 mph - N/A   Clear
2:55 AM 68.0 °F - 68.0 °F 100% 30.07 in 7.0 mi Calm Calm - N/A   Clear
3:15 AM 66.2 °F - 66.2 °F 100% 30.07 in 7.0 mi Calm Calm - N/A   Clear
3:35 AM 66.2 °F - 66.2 °F 100% 30.07 in 5.0 mi Calm Calm - N/A   Clear
3:55 AM 66.2 °F - 66.2 °F 100% 30.07 in 4.0 mi Calm Calm - N/A   Clear
4:15 AM 66.2 °F - 66.2 °F 100% 30.07 in 2.5 mi Calm Calm - N/A   Clear
4:35 AM 64.4 °F - 64.4 °F 100% 30.07 in 3.0 mi Calm Calm - N/A   Clear
4:55 AM 64.4 °F - 64.4 °F 100% 30.07 in 1.8 mi Calm Calm - N/A   Mist
5:15 AM 64.4 °F - 64.4 °F 100% 30.07 in 2.0 mi Calm Calm - N/A   Clear
5:35 AM 64.4 °F - 64.4 °F 100% 30.08 in 2.0 mi Calm Calm - N/A   Clear
5:55 AM 66.2 °F - 66.2 °F 100% 30.09 in 2.5 mi Calm Calm - N/A   Clear
6:15 AM 66.2 °F - 66.2 °F 100% 30.09 in 1.8 mi Calm Calm - N/A   Mist
6:35 AM 66.2 °F - 66.2 °F 100% 30.10 in 1.8 mi Calm Calm - N/A   Mist
6:55 AM 66.2 °F - 66.2 °F 100% 30.10 in 2.5 mi Calm Calm - N/A   Clear
7:15 AM 68.0 °F - 68.0 °F 100% 30.10 in 2.5 mi Calm Calm - N/A   Clear
7:35 AM 69.8 °F - 69.8 °F 100% 30.11 in 3.0 mi Calm Calm - N/A   Scattered Clouds
7:55 AM 69.8 °F - 69.8 °F 100% 30.10 in 4.0 mi Calm Calm - N/A   Clear
8:15 AM 71.6 °F - 71.6 °F 100% 30.10 in 5.0 mi WNW 3.5 mph - N/A   Clear
8:35 AM 73.4 °F - 71.6 °F 94% 30.10 in 7.0 mi WNW 3.5 mph - N/A   Scattered Clouds
8:55 AM 75.2 °F - 71.6 °F 89% 30.09 in 7.0 mi WNW 4.6 mph - N/A   Clear
9:15 AM 75.2 °F - 71.6 °F 89% 30.09 in 7.0 mi West 4.6 mph - N/A   Clear
9:35 AM 77.0 °F - 71.6 °F 83% 30.08 in 10.0 mi West 5.8 mph - N/A   Clear
9:55 AM 78.8 °F - 71.6 °F 78% 30.08 in 10.0 mi West 6.9 mph - N/A   Clear
10:15 AM 78.8 °F - 71.6 °F 78% 30.08 in 10.0 mi West 5.8 mph - N/A   Clear
10:55 AM 80.6 °F 85.4 °F 73.4 °F 79% 30.07 in 10.0 mi WNW 8.1 mph - N/A   Clear
11:15 AM 82.4 °F 88.2 °F 73.4 °F 74% 30.07 in 10.0 mi West 5.8 mph - N/A   Clear
11:35 AM 82.4 °F 88.2 °F 73.4 °F 74% 30.07 in 10.0 mi West 4.6 mph - N/A   Scattered Clouds
11:55 AM 84.2 °F 90.9 °F 73.4 °F 70% 30.07 in 10.0 mi WSW 6.9 mph - N/A   Scattered Clouds
12:15 PM 84.2 °F 90.9 °F 73.4 °F 70% 30.07 in 10.0 mi WSW 5.8 mph - N/A   Scattered Clouds
12:35 PM 84.2 °F 90.9 °F 73.4 °F 70% 30.07 in 10.0 mi NW 3.5 mph - N/A   Clear
12:55 PM 84.2 °F 89.6 °F 71.6 °F 66% 30.06 in 10.0 mi SW 5.8 mph - N/A   Scattered Clouds
1:15 PM 84.2 °F 89.6 °F 71.6 °F 66% 30.06 in 10.0 mi WNW 4.6 mph - N/A   Scattered Clouds
1:35 PM 84.2 °F 90.9 °F 73.4 °F 70% 30.04 in 10.0 mi Calm Calm - N/A   Scattered Clouds
1:55 PM 87.8 °F 95.6 °F 73.4 °F 62% 30.03 in 10.0 mi SW 5.8 mph - N/A Thunderstorm Clear
2:15 PM 82.4 °F 87.2 °F 71.6 °F 70% 30.04 in 5.0 mi West 10.4 mph 20.7 mph N/A Rain , Thunderstorm Thunderstorms and Rain
2:35 PM 71.6 °F - 69.8 °F 94% 30.11 in 1.2 mi NW 11.5 mph 36.8 mph 0.28 in Rain , Thunderstorm Heavy Thunderstorms and Rain
2:55 PM 66.2 °F - 66.2 °F 100% 30.08 in 10.0 mi Calm Calm - 0.39 in Rain , Thunderstorm Light Thunderstorms and Rain
3:15 PM 66.2 °F - 66.2 °F 100% 30.06 in 10.0 mi Calm Calm - 0.01 in Rain , Thunderstorm Light Thunderstorms and Rain
3:35 PM 68.0 °F - 68.0 °F 100% 30.03 in 7.0 mi Calm Calm - 0.02 in Thunderstorm Mostly Cloudy
3:55 PM 69.8 °F - 69.8 °F 100% 30.03 in 10.0 mi Calm Calm - 0.02 in Thunderstorm Scattered Clouds
4:15 PM 69.8 °F - 69.8 °F 100% 30.03 in 7.0 mi Calm Calm - N/A Rain , Thunderstorm Light Thunderstorms and Rain
4:35 PM 69.8 °F - 69.8 °F 100% 30.04 in 10.0 mi SSW 4.6 mph - N/A   Clear
4:55 PM 71.6 °F - 71.6 °F 100% 30.02 in 10.0 mi Calm Calm - N/A   Clear
5:15 PM 71.6 °F - 71.6 °F 100% 30.02 in 10.0 mi WNW 3.5 mph - N/A   Clear
5:35 PM 71.6 °F - 71.6 °F 100% 30.03 in 10.0 mi WSW 3.5 mph - N/A   Clear
5:55 PM 73.4 °F - 73.4 °F 100% 30.02 in 10.0 mi Calm Calm - N/A   Clear
6:15 PM 73.4 °F - 73.4 °F 100% 30.02 in 10.0 mi Calm Calm - N/A   Clear
6:35 PM 75.2 °F - 73.4 °F 94% 30.02 in 10.0 mi West 3.5 mph - N/A   Clear
6:55 PM 75.2 °F - 73.4 °F 94% 30.02 in 10.0 mi Calm Calm - N/A   Clear
7:15 PM 75.2 °F - 73.4 °F 94% 30.02 in 10.0 mi Calm Calm - N/A   Clear
7:35 PM 75.2 °F - 73.4 °F 94% 30.02 in 10.0 mi NNW 3.5 mph - N/A   Clear
7:55 PM 75.2 °F - 73.4 °F 94% 30.01 in 10.0 mi Calm Calm - N/A Rain Light Rain
8:15 PM 75.2 °F - 73.4 °F 94% 30.01 in 7.0 mi Calm Calm - N/A   Clear
8:35 PM 73.4 °F - 73.4 °F 100% 30.01 in 10.0 mi SE 3.5 mph - N/A   Clear
8:55 PM 73.4 °F - 73.4 °F 100% 30.00 in 7.0 mi ESE 3.5 mph - N/A   Clear
9:15 PM 71.6 °F - 71.6 °F 100% 30.01 in 10.0 mi ENE 3.5 mph - N/A   Clear
9:35 PM 71.6 °F - 71.6 °F 100% 30.01 in 5.0 mi Calm Calm - N/A   Clear
9:55 PM 71.6 °F - 71.6 °F 100% 30.02 in 7.0 mi Calm Calm - N/A   Scattered Clouds
10:15 PM 71.6 °F - 71.6 °F 100% 30.01 in 7.0 mi ESE 4.6 mph - N/A   Scattered Clouds
10:35 PM 71.6 °F - 71.6 °F 100% 30.01 in 5.0 mi Calm Calm - N/A   Scattered Clouds
10:55 PM 71.6 °F - 71.6 °F 100% 30.02 in 4.0 mi Calm Calm - N/A   Scattered Clouds
11:15 PM 69.8 °F - 69.8 °F 100% 30.02 in 7.0 mi Calm Calm - N/A   Clear
11:35 PM 71.6 °F - 71.6 °F 100% 30.02 in 10.0 mi Calm Calm - N/A   Clear
11:55 PM 69.8 °F - 69.8 °F 100% 30.01 in 5.0 mi Calm Calm - N/A   Clear